Peotone Weather
Station Historical Data
Daily Summary for May 19, 2017 Units:  Metric    English   Both
« Previous Day
Next Day »
Daily Weekly Monthly Yearly Custom
  High: Low: Average:
Temperature: 10.9 °C 6.8 °C 8.8 °C
Dew Point: 9.5 °C 4.1 °C 6.7 °C
Humidity: 95% 74% 87%
Wind Speed: 42.5km/h 0km/h 13.2km/h
Wind Gust: 48.1km/h - -
Wind- - ENE
Pressure: 1020.9 hPa 1014.8 hPa -
Precipitation: 4.83 mm    
Historical Graphs
 
 
Tabular Data for May 19, 2017
Time Temperature Dew Point Pressure Wind Wind Speed Wind Gust Humidity Rainfall Rate (Hourly) solar Conditions
00:00 10.9 °C 7.1 °C 1015.8 hPa East 13 km/h 31.4 km/h 77% 0 mm 0.00 W/m2
00:05 10.9 °C 7 °C 1015.8 hPa ENE 14.8 km/h 16.6 km/h 77% 0 mm 0.00 W/m2
00:10 10.9 °C 7 °C 1015.8 hPa NE 13 km/h 24 km/h 77% 0 mm 0.00 W/m2
00:15 10.8 °C 6.9 °C 1015.8 hPa ENE 5.5 km/h 24 km/h 77% 0 mm 0.00 W/m2
00:20 10.8 °C 6.9 °C 1015.8 hPa NE 24 km/h 27.7 km/h 77% 0 mm 0.00 W/m2
00:25 10.8 °C 6.9 °C 1015.8 hPa ENE 14.8 km/h 31.4 km/h 77% 0 mm 0.00 W/m2
00:27 10.8 °C 6.9 °C 1015.8 hPa North 16.6 km/h 18.5 km/h 77% 0 mm 0.00 W/m2
00:30 10.7 °C 6.8 °C 1015.8 hPa NE 11.1 km/h 29.6 km/h 77% 0 mm 0.00 W/m2
00:32 10.7 °C 6.8 °C 1015.8 hPa ENE 18.5 km/h 24 km/h 77% 0 mm 0.00 W/m2
00:35 10.7 °C 6.8 °C 1015.8 hPa North 11.1 km/h 24 km/h 77% 0 mm 0.00 W/m2
00:37 10.7 °C 6.8 °C 1015.8 hPa ENE 7.4 km/h 24 km/h 77% 0 mm 0.00 W/m2
00:40 10.6 °C 6.8 °C 1015.8 hPa NE 13 km/h 25.9 km/h 77% 0 mm 0.00 W/m2
00:43 10.6 °C 6.8 °C 1015.8 hPa North 13 km/h 27.7 km/h 77% 0 mm 0.00 W/m2
00:45 10.6 °C 6.9 °C 1016.1 hPa NE 7.4 km/h 35.2 km/h 78% 0 mm 0.00 W/m2
00:48 10.6 °C 6.9 °C 1016.1 hPa NNE 14.8 km/h 24 km/h 78% 0 mm 0.00 W/m2
00:50 10.6 °C 6.9 °C 1016.1 hPa NE 18.5 km/h 24 km/h 78% 0 mm 0.00 W/m2
00:53 10.5 °C 6.8 °C 1016.1 hPa ENE 13 km/h 33.3 km/h 78% 0 mm 0.00 W/m2
00:55 10.5 °C 6.8 °C 1016.1 hPa ENE 9.3 km/h 33.3 km/h 78% 0 mm 0.00 W/m2
00:58 10.5 °C 6.8 °C 1016.1 hPa NE 5.5 km/h 27.7 km/h 78% 0 mm 0.00 W/m2
01:00 10.4 °C 6.8 °C 1016.1 hPa North 11.1 km/h 27.7 km/h 78% 0 mm 0.00 W/m2
01:03 10.4 °C 6.7 °C 1016.1 hPa NNE 3.7 km/h 16.6 km/h 78% 0 mm 0.00 W/m2
01:05 10.3 °C 6.8 °C 1016.1 hPa NE 13 km/h 22.2 km/h 79% 0 mm 0.00 W/m2
01:08 10.3 °C 6.8 °C 1016.1 hPa NNE 18.5 km/h 22.2 km/h 79% 0 mm 0.00 W/m2
01:10 10.3 °C 6.8 °C 1015.8 hPa North 16.7 km/h 29.6 km/h 79% 0 mm 0.00 W/m2
01:13 10.3 °C 6.8 °C 1015.8 hPa NNE 5.5 km/h 20.3 km/h 79% 0 mm 0.00 W/m2
01:15 10.3 °C 6.8 °C 1015.8 hPa NNE 11.1 km/h 29.6 km/h 79% 0 mm 0.00 W/m2
01:18 10.3 °C 6.8 °C 1015.8 hPa ENE 5.5 km/h 20.3 km/h 79% 0 mm 0.00 W/m2
01:20 10.2 °C 6.7 °C 1016.1 hPa East 11.1 km/h 20.3 km/h 79% 0 mm 0.00 W/m2
01:23 10.2 °C 6.7 °C 1016.1 hPa NE 7.4 km/h 24 km/h 79% 0 mm 0.00 W/m2
01:25 10.2 °C 6.7 °C 1015.8 hPa NNE 11.1 km/h 24 km/h 79% 0 mm 0.00 W/m2
01:28 10.1 °C 6.8 °C 1015.8 hPa ENE 14.8 km/h 18.5 km/h 80% 0 mm 0.00 W/m2
01:30 10.1 °C 6.8 °C 1015.8 hPa North 22.2 km/h 29.6 km/h 80% 0 mm 0.00 W/m2
01:33 10 °C 6.7 °C 1016.1 hPa NNE 9.3 km/h 22.2 km/h 80% 0 mm 0.00 W/m2
01:35 9.9 °C 6.7 °C 1016.1 hPa ENE 22.2 km/h 22.2 km/h 80% 0 mm 0.00 W/m2
01:38 9.9 °C 6.6 °C 1016.1 hPa NE 9.3 km/h 22.2 km/h 80% 0 mm 0.00 W/m2
01:40 9.8 °C 6.6 °C 1016.1 hPa NNE 24 km/h 25.9 km/h 80% 0 mm 0.00 W/m2
01:43 9.8 °C 6.6 °C 1016.1 hPa NE 16.6 km/h 27.7 km/h 80% 0 mm 0.00 W/m2
01:45 9.8 °C 6.4 °C 1016.1 hPa North 20.3 km/h 27.7 km/h 79% 0 mm 0.00 W/m2
01:49 9.8 °C 6.3 °C 1016.5 hPa North 16.6 km/h 29.6 km/h 79% 0 mm 0.00 W/m2
01:50 9.8 °C 6.3 °C 1016.5 hPa NNE 18.5 km/h 33.3 km/h 79% 0 mm 0.00 W/m2
01:54 9.7 °C 6.3 °C 1016.8 hPa ENE 16.6 km/h 22.2 km/h 79% 0 mm 0.00 W/m2
01:55 9.7 °C 6.3 °C 1016.5 hPa NE 14.8 km/h 24 km/h 79% 0 mm 0.00 W/m2
01:59 9.7 °C 6.3 °C 1016.5 hPa North 27.7 km/h 27.7 km/h 79% 0 mm 0.00 W/m2
02:00 9.7 °C 6 °C 1016.5 hPa ENE 25.9 km/h 31.4 km/h 78% 0 mm 0.00 W/m2
02:04 9.7 °C 6 °C 1016.1 hPa North 13 km/h 31.4 km/h 78% 0 mm 0.00 W/m2
02:05 9.6 °C 5.9 °C 1016.5 hPa NE 13 km/h 31.4 km/h 78% 0 mm 0.00 W/m2
02:09 9.6 °C 5.9 °C 1016.5 hPa NE 18.5 km/h 22.2 km/h 78% 0 mm 0.00 W/m2
02:10 9.6 °C 5.9 °C 1016.5 hPa NE 24 km/h 24 km/h 78% 0 mm 0.00 W/m2
02:14 9.5 °C 5.8 °C 1016.5 hPa NE 14.8 km/h 25.9 km/h 78% 0 mm 0.00 W/m2
02:15 9.5 °C 5.8 °C 1016.1 hPa NNE 14.8 km/h 25.9 km/h 78% 0 mm 0.00 W/m2
02:19 9.4 °C 6 °C 1016.5 hPa NE 20.3 km/h 20.3 km/h 79% 0 mm 0.00 W/m2
02:20 9.4 °C 6 °C 1016.5 hPa NE 25.9 km/h 27.7 km/h 79% 0 mm 0.00 W/m2
02:22 9.4 °C 5.7 °C 1016.1 hPa NNE 13 km/h 35.2 km/h 78% 0 mm 0.00 W/m2
02:25 9.3 °C 5.7 °C 1016.5 hPa ENE 9.3 km/h 35.2 km/h 78% 0 mm 0.00 W/m2
02:27 9.3 °C 5.5 °C 1016.5 hPa North 29.6 km/h 37 km/h 77% 0 mm 0.00 W/m2
02:30 9.2 °C 4.8 °C 1016.8 hPa NE 5.6 km/h 37 km/h 74% 0 mm 0.00 W/m2
02:32 9.2 °C 5 °C 1016.8 hPa NNE 3.7 km/h 18.5 km/h 75% 0 mm 0.00 W/m2
02:35 9.1 °C 4.9 °C 1016.8 hPa NE 22.2 km/h 35.2 km/h 75% 0 mm 0.00 W/m2
02:37 9 °C 4.6 °C 1016.5 hPa NNE 7.4 km/h 29.6 km/h 74% 0 mm 0.00 W/m2
02:40 8.9 °C 4.6 °C 1016.5 hPa NNE 14.8 km/h 33.3 km/h 74% 0 mm 0.00 W/m2
02:43 8.9 °C 4.7 °C 1016.8 hPa NE 16.6 km/h 40.7 km/h 75% 0 mm 0.00 W/m2
02:45 8.8 °C 4.4 °C 1016.8 hPa ENE 16.7 km/h 40.7 km/h 74% 0 mm 0.00 W/m2
02:48 8.8 °C 4.7 °C 1016.5 hPa East 11.1 km/h 25.9 km/h 75% 0 mm 0.00 W/m2
02:50 8.8 °C 4.6 °C 1016.5 hPa NNE 27.7 km/h 27.7 km/h 75% 0 mm 0.00 W/m2
02:53 8.8 °C 4.6 °C 1016.5 hPa North 14.8 km/h 27.7 km/h 75% 0 mm 0.00 W/m2
02:55 8.7 °C 4.6 °C 1016.5 hPa ENE 22.2 km/h 37 km/h 75% 0 mm 0.00 W/m2
02:58 8.7 °C 4.5 °C 1016.1 hPa NE 16.6 km/h 25.9 km/h 75% 0 mm 0.00 W/m2
03:06 8.6 °C 4.4 °C 1015.8 hPa NE 16.6 km/h 16.6 km/h 75% 0 mm 0.00 W/m2
03:11 8.4 °C 4.3 °C 1015.8 hPa ENE 27.7 km/h 27.7 km/h 75% 0 mm 0.00 W/m2
03:16 8.3 °C 4.3 °C 1015.8 hPa NE 14.8 km/h 22.2 km/h 76% 0 mm 0.00 W/m2
03:21 8.3 °C 4.5 °C 1015.8 hPa NNE 14.8 km/h 14.8 km/h 77% 0 mm 0.00 W/m2
03:26 8.3 °C 4.7 °C 1015.8 hPa NE 27.7 km/h 27.7 km/h 78% 0 mm 0.00 W/m2
03:32 8.2 °C 4.4 °C 1015.5 hPa NE 14.8 km/h 16.6 km/h 77% 0 mm 0.00 W/m2
03:33 8.2 °C 4.4 °C 1015.8 hPa NNE 20.3 km/h 22.2 km/h 77% 0 mm 0.00 W/m2
03:38 8.2 °C 4.4 °C 1015.8 hPa NE 20.3 km/h 27.7 km/h 77% 0 mm 0.00 W/m2
03:43 8.1 °C 4.3 °C 1016.1 hPa ENE 16.6 km/h 24 km/h 77% 0 mm 0.00 W/m2
03:48 8.1 °C 4.4 °C 1016.1 hPa North 16.6 km/h 29.6 km/h 78% 0 mm 0.00 W/m2
03:53 7.9 °C 4.3 °C 1016.5 hPa NE 14.8 km/h 27.7 km/h 78% 0 mm 0.00 W/m2
03:58 7.9 °C 4.3 °C 1016.5 hPa NE 9.3 km/h 16.6 km/h 78% 0 mm 0.00 W/m2
04:03 7.9 °C 4.3 °C 1016.5 hPa NNE 13 km/h 16.6 km/h 78% 0 mm 0.00 W/m2
04:08 7.9 °C 4.3 °C 1016.8 hPa NNE 9.3 km/h 16.6 km/h 78% 0 mm 0.00 W/m2
04:13 7.8 °C 4.2 °C 1016.8 hPa NNE 5.5 km/h 22.2 km/h 78% 0 mm 0.00 W/m2
04:19 7.8 °C 4.1 °C 1017.2 hPa NE 16.6 km/h 27.7 km/h 77% 0 mm 0.00 W/m2
04:24 7.8 °C 4.2 °C 1017.2 hPa ENE 5.5 km/h 27.7 km/h 78% 0 mm 0.00 W/m2
04:29 7.8 °C 4.2 °C 1016.8 hPa NE 11.1 km/h 33.3 km/h 78% 0 mm 0.00 W/m2
04:34 7.8 °C 4.2 °C 1017.2 hPa NNE 11.1 km/h 16.6 km/h 78% 0 mm 0.00 W/m2
04:39 7.8 °C 4.2 °C 1017.2 hPa ENE 20.3 km/h 24 km/h 78% 0 mm 0.00 W/m2
04:44 7.7 °C 4.1 °C 1017.2 hPa NE 7.4 km/h 24 km/h 78% 0 mm 0.00 W/m2
04:49 7.7 °C 4.1 °C 1016.8 hPa NE 14.8 km/h 20.3 km/h 78% 0 mm 0.00 W/m2
04:54 7.7 °C 4.3 °C 1016.8 hPa NE 13 km/h 20.3 km/h 79% 0 mm 0.00 W/m2
04:59 7.7 °C 4.1 °C 1017.2 hPa ENE 3.7 km/h 18.5 km/h 78% 0 mm 0.00 W/m2
05:04 7.7 °C 4.1 °C 1017.2 hPa NE 18.5 km/h 24 km/h 78% 0 mm 0.00 W/m2
05:09 7.7 °C 4.1 °C 1016.8 hPa North 13 km/h 29.6 km/h 78% 0 mm 0.00 W/m2
05:14 7.6 °C 4.2 °C 1016.8 hPa NE 9.3 km/h 22.2 km/h 79% 0 mm 0.00 W/m2
05:19 7.5 °C 4.1 °C 1016.8 hPa NE 7.4 km/h 18.5 km/h 79% 0 mm 0.00 W/m2
05:24 7.4 °C 4.2 °C 1017.2 hPa NE 5.5 km/h 22.2 km/h 80% 0 mm 0.00 W/m2
05:29 7.4 °C 4.4 °C 1017.2 hPa NE 14.8 km/h 20.3 km/h 81% 0 mm 0.00 W/m2
05:34 7.4 °C 4.2 °C 1017.2 hPa ENE 16.6 km/h 25.9 km/h 80% 0 mm 0.00 W/m2
05:39 7.3 °C 4.1 °C 1017.2 hPa NE 3.7 km/h 25.9 km/h 80% 0 mm 0.00 W/m2
05:45 7.3 °C 4.3 °C 1017.2 hPa ENE 14.8 km/h 24 km/h 81% 0 mm 5.00 W/m2
05:50 7.4 °C 4.3 °C 1017.2 hPa East 11.1 km/h 18.5 km/h 81% 0 mm 7.00 W/m2
05:55 7.4 °C 4.3 °C 1017.5 hPa NE 7.4 km/h 20.3 km/h 81% 0 mm 7.00 W/m2
06:00 7.4 °C 4.4 °C 1017.5 hPa ENE 18.5 km/h 18.5 km/h 81% 0 mm 9.00 W/m2
06:05 7.4 °C 4.4 °C 1017.2 hPa NE 5.5 km/h 24 km/h 81% 0 mm 9.00 W/m2
06:10 7.4 °C 4.6 °C 1017.2 hPa ENE 24 km/h 24 km/h 82% 0 mm 11.00 W/m2
06:15 7.4 °C 4.3 °C 1017.2 hPa NE 5.5 km/h 25.9 km/h 81% 0 mm 12.00 W/m2
06:20 7.3 °C 4.3 °C 1017.2 hPa NE 18.5 km/h 31.4 km/h 81% 0 mm 14.00 W/m2
06:25 7.2 °C 4.3 °C 1017.5 hPa NE 20.3 km/h 25.9 km/h 82% 0 mm 14.00 W/m2
06:30 7.2 °C 4.3 °C 1017.5 hPa NNW 7.4 km/h 31.4 km/h 82% 0 mm 16.00 W/m2
06:35 7.2 °C 4.5 °C 1017.5 hPa NNE 27.7 km/h 27.7 km/h 83% 0 mm 18.00 W/m2
06:40 7.2 °C 4.5 °C 1017.8 hPa ESE 5.5 km/h 24 km/h 83% 0 mm 19.00 W/m2
06:45 7.1 °C 4.4 °C 1017.8 hPa ENE 13 km/h 33.3 km/h 83% 0 mm 25.00 W/m2
06:50 7.1 °C 4.7 °C 1017.5 hPa East 25.9 km/h 25.9 km/h 85% 0 mm 33.00 W/m2
06:55 6.9 °C 4.8 °C 1017.5 hPa ENE 27.7 km/h 27.7 km/h 86% 0 mm 37.00 W/m2
07:00 6.9 °C 4.7 °C 1016.8 hPa NNE 24 km/h 29.6 km/h 86% 0 mm 39.00 W/m2
07:05 6.9 °C 4.9 °C 1017.2 hPa NE 14.8 km/h 31.4 km/h 87% 0 mm 42.00 W/m2
07:10 6.8 °C 4.8 °C 1017.5 hPa ENE 16.6 km/h 31.4 km/h 87% 0 mm 49.00 W/m2
07:15 6.9 °C 4.9 °C 1016.8 hPa ENE 20.3 km/h 25.9 km/h 87% 0 mm 63.00 W/m2
07:20 6.9 °C 4.9 °C 1016.8 hPa East 18.5 km/h 31.4 km/h 87% 0 mm 93.00 W/m2
07:25 7.1 °C 5.3 °C 1016.8 hPa NE 22.2 km/h 31.4 km/h 88% 0 mm 113.00 W/m2
07:30 7.2 °C 5.4 °C 1017.5 hPa NE 7.4 km/h 16.6 km/h 88% 0 mm 95.00 W/m2
07:35 7.3 °C 5.4 °C 1017.5 hPa ENE 13 km/h 27.7 km/h 88% 0 mm 72.00 W/m2
07:40 7.3 °C 5.3 °C 1016.8 hPa NE 11.1 km/h 22.2 km/h 87% 0 mm 102.00 W/m2
07:45 7.4 °C 5.4 °C 1017.5 hPa NE 9.3 km/h 20.3 km/h 87% 0 mm 56.00 W/m2
07:50 7.3 °C 5.2 °C 1017.5 hPa ENE 13 km/h 29.6 km/h 86% 0 mm 72.00 W/m2
07:55 7.3 °C 5.2 °C 1017.5 hPa NNE 13 km/h 31.4 km/h 86% 0 mm 84.00 W/m2
08:01 7.4 °C 5.3 °C 1017.2 hPa East 16.6 km/h 29.6 km/h 86% 0 mm 69.00 W/m2
08:06 7.6 °C 5.4 °C 1017.5 hPa NE 9.3 km/h 29.6 km/h 86% 0 mm 69.00 W/m2
08:11 7.6 °C 5.4 °C 1017.2 hPa East 16.6 km/h 31.4 km/h 86% 0 mm 120.00 W/m2
08:16 7.5 °C 5.2 °C 1017.5 hPa East 14.8 km/h 33.3 km/h 85% 0 mm 132.00 W/m2
08:21 7.5 °C 5 °C 1017.5 hPa NE 25.9 km/h 31.4 km/h 84% 0 mm 104.00 W/m2
08:22 7.5 °C 5 °C 1017.5 hPa ESE 14.8 km/h 31.4 km/h 84% 0 mm 100.00 W/m2
08:27 7.6 °C 5 °C 1017.5 hPa ENE 13 km/h 35.2 km/h 84% 0 mm 77.00 W/m2
08:32 7.5 °C 5 °C 1017.5 hPa North 9.3 km/h 24 km/h 84% 0 mm 49.00 W/m2
08:37 7.4 °C 4.9 °C 1017.8 hPa NE 13 km/h 20.3 km/h 84% 0 mm 44.00 W/m2
08:42 7.4 °C 5.1 °C 1017.8 hPa NNE 14.8 km/h 22.2 km/h 85% 0 mm 53.00 W/m2
08:47 7.4 °C 4.9 °C 1018.2 hPa NNE 14.8 km/h 20.3 km/h 84% 0 mm 51.00 W/m2
08:52 7.4 °C 4.9 °C 1018.2 hPa NNE 11.1 km/h 13 km/h 84% 0 mm 49.00 W/m2
08:55 7.5 °C 5.2 °C 1018.5 hPa North 14.8 km/h 14.8 km/h 85% 0 mm 49.00 W/m2
09:00 7.7 °C 5.3 °C 1018.8 hPa North 9.3 km/h 20.3 km/h 85% 0 mm 51.00 W/m2
09:05 7.8 °C 5.2 °C 1019.9 hPa NNE 14.8 km/h 14.8 km/h 84% 0 mm 28.00 W/m2
09:10 7.7 °C 5.2 °C 1020.2 hPa NW 7.4 km/h 14.8 km/h 84% 0 mm 23.00 W/m2
09:15 7.8 °C 5.6 °C 1020.5 hPa NNW 11.1 km/h 16.6 km/h 86% 0 mm 33.00 W/m2
09:20 7.7 °C 5.7 °C 1020.2 hPa North 5.5 km/h 18.5 km/h 87% 0.25 mm 33.00 W/m2
09:25 7.6 °C 5.7 °C 1019.9 hPa WNW 3.7 km/h 22.2 km/h 88% 0.25 mm 37.00 W/m2
09:30 7.4 °C 5.7 °C 1019.2 hPa North 13 km/h 20.3 km/h 89% 0.76 mm 39.00 W/m2
09:35 7.3 °C 5.6 °C 1019.9 hPa East 1.8 km/h 18.5 km/h 89% 1.02 mm 33.00 W/m2
09:40 7.3 °C 5.7 °C 1019.9 hPa NE 16.6 km/h 16.6 km/h 90% 1.78 mm 39.00 W/m2
09:45 7.1 °C 5.7 °C 1018.5 hPa North 14.8 km/h 18.5 km/h 91% 2.29 mm 63.00 W/m2
09:50 7 °C 5.6 °C 1018.2 hPa ENE 13 km/h 33.3 km/h 91% 2.79 mm 69.00 W/m2
09:55 7.1 °C 5.8 °C 1017.5 hPa NNE 3.7 km/h 27.7 km/h 92% 3.3 mm 76.00 W/m2
09:56 7.1 °C 5.8 °C 1017.5 hPa NNE 5.5 km/h 27.7 km/h 92% 3.3 mm 76.00 W/m2
10:01 7 °C 5.8 °C 1017.2 hPa NE 13 km/h 42.5 km/h 92% 3.56 mm 86.00 W/m2
10:06 7 °C 5.8 °C 1016.1 hPa NE 31.4 km/h 37 km/h 92% 3.56 mm 121.00 W/m2
10:11 7.1 °C 6.1 °C 1015.8 hPa NE 16.6 km/h 33.3 km/h 93% 3.56 mm 118.00 W/m2
10:16 7.1 °C 6 °C 1015.8 hPa NNE 14.8 km/h 35.2 km/h 93% 3.56 mm 134.00 W/m2
10:21 7.2 °C 6.1 °C 1015.1 hPa NNE 35.2 km/h 38.8 km/h 93% 3.56 mm 190.00 W/m2
10:26 7.2 °C 6.2 °C 1015.1 hPa ENE 13 km/h 48.1 km/h 93% 3.56 mm 237.00 W/m2
10:31 7.4 °C 6.4 °C 1015.5 hPa NE 22.2 km/h 31.4 km/h 93% 3.3 mm 220.00 W/m2
10:36 7.6 °C 6.6 °C 1015.1 hPa NE 14.8 km/h 14.8 km/h 93% 2.54 mm 186.00 W/m2
10:41 7.4 °C 6.4 °C 1014.8 hPa NNE 11.1 km/h 13 km/h 93% 2.03 mm 216.00 W/m2
10:46 7.5 °C 6.4 °C 1014.8 hPa NE 14.8 km/h 29.6 km/h 93% 1.27 mm 221.00 W/m2
10:51 7.7 °C 6.6 °C 1014.8 hPa NE 18.5 km/h 27.7 km/h 93% 1.02 mm 207.00 W/m2
10:56 7.7 °C 6.7 °C 1014.8 hPa ENE 18.5 km/h 24 km/h 93% 0.51 mm 265.00 W/m2
11:01 7.9 °C 6.9 °C 1015.1 hPa NE 42.5 km/h 42.5 km/h 93% 0.25 mm 396.00 W/m2
11:06 8.6 °C 7.7 °C 1015.1 hPa NE 20.3 km/h 20.3 km/h 94% 0.25 mm 239.00 W/m2
11:11 8.4 °C 7.2 °C 1015.1 hPa NNE 11.1 km/h 13 km/h 92% 0.25 mm 137.00 W/m2
11:13 8.4 °C 7.2 °C 1015.1 hPa NE 31.4 km/h 31.4 km/h 92% 0.25 mm 132.00 W/m2
11:18 8.1 °C 6.9 °C 1014.8 hPa ENE 25.9 km/h 40.7 km/h 92% 0.25 mm 123.00 W/m2
11:23 7.9 °C 6.7 °C 1014.8 hPa NE 14.8 km/h 46.3 km/h 92% 0 mm 153.00 W/m2
11:28 7.9 °C 6.7 °C 1015.1 hPa NE 25.9 km/h 46.3 km/h 92% 0 mm 207.00 W/m2
11:33 8 °C 6.8 °C 1015.5 hPa NNE 16.6 km/h 27.7 km/h 92% 0 mm 209.00 W/m2
11:38 8.3 °C 7.1 °C 1015.8 hPa NNE 7.4 km/h 33.3 km/h 92% 0 mm 179.00 W/m2
11:44 8.3 °C 7.1 °C 1016.1 hPa ENE 7.4 km/h 27.7 km/h 92% 0 mm 218.00 W/m2
11:49 8.3 °C 7.1 °C 1016.8 hPa NE 16.6 km/h 24 km/h 92% 0 mm 199.00 W/m2
11:54 8.4 °C 7.2 °C 1016.8 hPa NE 7.4 km/h 22.2 km/h 92% 0 mm 207.00 W/m2
11:59 8.6 °C 7.4 °C 1016.8 hPa NE 20.3 km/h 27.7 km/h 92% 0 mm 186.00 W/m2
12:04 8.4 °C 7 °C 1016.8 hPa ENE 16.6 km/h 24 km/h 91% 0 mm 155.00 W/m2
12:09 8.4 °C 7.1 °C 1016.8 hPa NE 13 km/h 24 km/h 91% 0 mm 262.00 W/m2
12:14 8.7 °C 7.5 °C 1016.5 hPa NE 13 km/h 25.9 km/h 92% 0 mm 480.00 W/m2
12:19 9.7 °C 8.7 °C 1016.5 hPa NE 9.3 km/h 22.2 km/h 93% 0 mm 519.00 W/m2
12:24 9.8 °C 8.2 °C 1016.5 hPa NE 3.7 km/h 18.5 km/h 90% 0 mm 357.00 W/m2
12:29 9.6 °C 7.9 °C 1016.8 hPa NE 29.6 km/h 29.6 km/h 89% 0 mm 251.00 W/m2
12:34 9.2 °C 7.7 °C 1016.8 hPa North 18.5 km/h 20.3 km/h 90% 0 mm 204.00 W/m2
12:39 9.3 °C 7.9 °C 1016.8 hPa North 7.4 km/h 22.2 km/h 91% 0 mm 204.00 W/m2
12:44 9.3 °C 7.7 °C 1017.5 hPa NNW 13 km/h 25.9 km/h 90% 0 mm 160.00 W/m2
12:49 9.3 °C 7.8 °C 1017.5 hPa NE 13 km/h 24 km/h 90% 0 mm 160.00 W/m2
12:54 9.4 °C 7.8 °C 1017.5 hPa North 11.1 km/h 22.2 km/h 90% 0 mm 141.00 W/m2
12:59 9.3 °C 7.8 °C 1017.5 hPa NE 29.6 km/h 29.6 km/h 90% 0 mm 134.00 W/m2
13:04 9.3 °C 7.7 °C 1017.2 hPa NNE 16.6 km/h 24 km/h 90% 0 mm 174.00 W/m2
13:09 9.4 °C 7.7 °C 1016.8 hPa NNE 18.5 km/h 25.9 km/h 89% 0 mm 188.00 W/m2
13:14 9.5 °C 7.8 °C 1016.8 hPa NNE 20.3 km/h 25.9 km/h 89% 0 mm 213.00 W/m2
13:19 9.6 °C 7.9 °C 1016.8 hPa NNE 31.4 km/h 31.4 km/h 89% 0 mm 204.00 W/m2
13:24 9.8 °C 8.1 °C 1016.8 hPa North 22.2 km/h 25.9 km/h 89% 0 mm 195.00 W/m2
13:30 9.7 °C 7.8 °C 1016.8 hPa NNE 11.1 km/h 20.3 km/h 88% 0 mm 151.00 W/m2
13:35 9.6 °C 7.7 °C 1016.8 hPa NNE 18.5 km/h 31.4 km/h 88% 0 mm 160.00 W/m2
13:40 9.4 °C 7.7 °C 1016.8 hPa NE 14.8 km/h 27.7 km/h 89% 0 mm 146.00 W/m2
13:45 9.4 °C 7.7 °C 1016.8 hPa NNE 9.3 km/h 29.6 km/h 89% 0 mm 79.00 W/m2
13:50 9.3 °C 7.6 °C 1017.2 hPa NNE 20.3 km/h 25.9 km/h 89% 0 mm 83.00 W/m2
13:55 9.3 °C 7.6 °C 1017.2 hPa NE 13 km/h 24 km/h 89% 0 mm 98.00 W/m2
14:00 9.2 °C 7.4 °C 1017.2 hPa NE 5.5 km/h 18.5 km/h 89% 0 mm 105.00 W/m2
14:05 9.2 °C 7.6 °C 1017.8 hPa NNE 5.5 km/h 18.5 km/h 90% 0 mm 39.00 W/m2
14:10 9.1 °C 7.5 °C 1018.2 hPa NE 11.1 km/h 14.8 km/h 90% 0 mm 42.00 W/m2
14:15 9 °C 7.4 °C 1018.2 hPa North 7.4 km/h 22.2 km/h 90% 0.51 mm 76.00 W/m2
14:20 8.9 °C 7.7 °C 1017.8 hPa NNE 5.5 km/h 16.6 km/h 92% 0.76 mm 74.00 W/m2
14:25 8.9 °C 7.7 °C 1017.8 hPa NNE 5.5 km/h 16.6 km/h 92% 1.02 mm 98.00 W/m2
14:30 8.9 °C 7.7 °C 1017.8 hPa NNE 13 km/h 18.5 km/h 92% 1.02 mm 116.00 W/m2
14:35 8.8 °C 7.6 °C 1017.8 hPa NE 11.1 km/h 18.5 km/h 92% 1.02 mm 118.00 W/m2
14:40 8.9 °C 7.9 °C 1017.8 hPa NE 7.4 km/h 16.6 km/h 93% 1.02 mm 120.00 W/m2
14:45 9.1 °C 8 °C 1017.8 hPa NNE 7.4 km/h 20.3 km/h 93% 1.02 mm 148.00 W/m2
14:50 9.1 °C 8 °C 1017.8 hPa NNE 11.1 km/h 20.3 km/h 93% 1.02 mm 144.00 W/m2
14:55 9.1 °C 8.1 °C 1017.8 hPa NNE 7.4 km/h 18.5 km/h 93% 1.02 mm 141.00 W/m2
15:00 9.1 °C 8 °C 1017.8 hPa NE 5.5 km/h 27.7 km/h 93% 1.02 mm 118.00 W/m2
15:06 8.9 °C 7.9 °C 1017.8 hPa NE 14.8 km/h 31.4 km/h 93% 1.02 mm 128.00 W/m2
15:11 8.8 °C 7.8 °C 1017.8 hPa NE 16.6 km/h 29.6 km/h 93% 1.02 mm 130.00 W/m2
15:16 8.9 °C 7.9 °C 1017.8 hPa NNE 1.8 km/h 27.7 km/h 93% 1.02 mm 116.00 W/m2
15:21 8.9 °C 7.9 °C 1017.8 hPa ENE 13 km/h 24 km/h 93% 0.25 mm 121.00 W/m2
15:26 8.8 °C 7.7 °C 1017.8 hPa North 9.3 km/h 25.9 km/h 93% 0.25 mm 105.00 W/m2
15:31 8.8 °C 7.7 °C 1017.8 hPa NNE 20.3 km/h 29.6 km/h 93% 0 mm 109.00 W/m2
15:36 8.7 °C 7.6 °C 1017.5 hPa ENE 14.8 km/h 27.7 km/h 93% 0 mm 113.00 W/m2
15:41 8.7 °C 7.6 °C 1017.5 hPa NE 11.1 km/h 29.6 km/h 93% 0 mm 113.00 W/m2
15:46 8.7 °C 7.6 °C 1017.5 hPa NE 5.5 km/h 33.3 km/h 93% 0 mm 127.00 W/m2
15:51 8.7 °C 7.6 °C 1017.5 hPa NNE 24 km/h 25.9 km/h 93% 0 mm 134.00 W/m2
15:56 8.7 °C 7.6 °C 1017.8 hPa NNE 13 km/h 33.3 km/h 93% 0 mm 102.00 W/m2
16:01 8.6 °C 7.3 °C 1017.8 hPa SE 9.3 km/h 16.6 km/h 92% 0 mm 83.00 W/m2
16:02 8.6 °C 7.3 °C 1017.8 hPa North 16.6 km/h 20.3 km/h 92% 0 mm 79.00 W/m2
16:07 8.6 °C 7.5 °C 1017.8 hPa NNW 11.1 km/h 22.2 km/h 93% 0 mm 77.00 W/m2
16:12 8.5 °C 7.4 °C 1017.8 hPa NE 5.5 km/h 25.9 km/h 93% 0 mm 77.00 W/m2
16:17 8.4 °C 7.4 °C 1018.2 hPa North 20.3 km/h 24 km/h 93% 0 mm 84.00 W/m2
16:22 8.6 °C 7.5 °C 1018.5 hPa NNE 5.5 km/h 13 km/h 93% 0 mm 67.00 W/m2
16:27 8.6 °C 7.5 °C 1018.5 hPa North 13 km/h 14.8 km/h 93% 0 mm 72.00 W/m2
16:32 8.6 °C 7.5 °C 1018.5 hPa NE 5.5 km/h 14.8 km/h 93% 0 mm 70.00 W/m2
16:37 8.5 °C 7.4 °C 1018.5 hPa NNE 13 km/h 29.6 km/h 93% 0 mm 83.00 W/m2
16:42 8.4 °C 7.4 °C 1018.5 hPa NE 9.3 km/h 35.2 km/h 93% 0 mm 69.00 W/m2
16:47 8.4 °C 7.4 °C 1018.8 hPa NE 11.1 km/h 27.7 km/h 93% 0 mm 65.00 W/m2
16:52 8.4 °C 7.3 °C 1018.8 hPa NE 14.8 km/h 20.3 km/h 93% 0 mm 58.00 W/m2
16:57 8.4 °C 7.4 °C 1019.2 hPa NE 7.4 km/h 18.5 km/h 93% 0 mm 54.00 W/m2
17:02 8.5 °C 7.4 °C 1019.2 hPa North 20.3 km/h 27.7 km/h 93% 0 mm 65.00 W/m2
17:07 8.4 °C 7.6 °C 1019.2 hPa North 3.7 km/h 16.6 km/h 94% 0 mm 67.00 W/m2
17:12 8.5 °C 7.6 °C 1019.2 hPa NNE 16.6 km/h 25.9 km/h 94% 0 mm 74.00 W/m2
17:18 8.5 °C 7.6 °C 1019.2 hPa NNW 18.5 km/h 22.2 km/h 94% 0 mm 74.00 W/m2
17:23 8.5 °C 7.6 °C 1019.2 hPa NE 9.3 km/h 24 km/h 94% 0 mm 81.00 W/m2
17:28 8.5 °C 7.6 °C 1019.5 hPa NE 7.4 km/h 18.5 km/h 94% 0 mm 81.00 W/m2
17:31 8.6 °C 7.7 °C 1019.5 hPa North 13 km/h 29.6 km/h 94% 0 mm 77.00 W/m2
17:36 8.7 °C 7.8 °C 1019.5 hPa NE 13 km/h 27.7 km/h 94% 0 mm 86.00 W/m2
17:41 8.7 °C 7.8 °C 1019.2 hPa NNE 11.1 km/h 24 km/h 94% 0 mm 127.00 W/m2
17:46 8.8 °C 7.9 °C 1019.2 hPa NNE 18.5 km/h 20.3 km/h 94% 0 mm 107.00 W/m2
17:51 8.9 °C 8 °C 1019.2 hPa NW 11.1 km/h 29.6 km/h 94% 0 mm 79.00 W/m2
17:56 8.8 °C 7.9 °C 1019.2 hPa North 3.7 km/h 22.2 km/h 94% 0 mm 63.00 W/m2
18:01 8.8 °C 7.9 °C 1019.5 hPa NE 18.5 km/h 31.4 km/h 94% 0 mm 60.00 W/m2
18:06 8.8 °C 7.9 °C 1019.5 hPa North 7.4 km/h 27.7 km/h 94% 0 mm 53.00 W/m2
18:11 8.8 °C 7.9 °C 1019.2 hPa NNE 5.5 km/h 22.2 km/h 94% 0 mm 47.00 W/m2
18:16 8.9 °C 8 °C 1019.2 hPa NE 11.1 km/h 27.7 km/h 94% 0 mm 56.00 W/m2
18:21 8.8 °C 7.9 °C 1019.2 hPa NNW 24 km/h 31.4 km/h 94% 0 mm 69.00 W/m2
18:26 8.8 °C 7.9 °C 1019.2 hPa NNE 11.1 km/h 11.1 km/h 94% 0 mm 58.00 W/m2
18:31 8.9 °C 8 °C 1019.2 hPa NNE 5.5 km/h 5.5 km/h 94% 0 mm 74.00 W/m2
18:36 8.9 °C 8.1 °C 1019.2 hPa NNE 20.3 km/h 24 km/h 94% 0 mm 62.00 W/m2
18:41 8.9 °C 8.1 °C 1019.2 hPa NE 13 km/h 25.9 km/h 94% 0 mm 60.00 W/m2
18:46 9 °C 8.1 °C 1019.2 hPa ENE 7.4 km/h 18.5 km/h 94% 0 mm 49.00 W/m2
18:51 8.9 °C 7.9 °C 1019.2 hPa NE 9.3 km/h 22.2 km/h 93% 0 mm 44.00 W/m2
18:57 8.9 °C 7.9 °C 1019.2 hPa NE 7.4 km/h 14.8 km/h 93% 0 mm 39.00 W/m2
19:02 8.9 °C 8.1 °C 1019.2 hPa NNW 5.5 km/h 18.5 km/h 94% 0 mm 26.00 W/m2
19:07 8.9 °C 7.9 °C 1019.5 hPa NE 13 km/h 13 km/h 93% 0 mm 28.00 W/m2
19:12 9 °C 8.1 °C 1019.5 hPa North 14.8 km/h 14.8 km/h 94% 0 mm 28.00 W/m2
19:17 8.9 °C 8.1 °C 1019.5 hPa NE 11.1 km/h 22.2 km/h 94% 0 mm 25.00 W/m2
19:22 9 °C 8.1 °C 1019.5 hPa NE 13 km/h 24 km/h 94% 0 mm 23.00 W/m2
19:27 9 °C 8.1 °C 1019.5 hPa North 5.5 km/h 20.3 km/h 94% 0 mm 21.00 W/m2
19:32 9 °C 8.1 °C 1019.9 hPa NE 9.3 km/h 22.2 km/h 94% 0 mm 16.00 W/m2
19:37 9 °C 7.9 °C 1019.9 hPa NE 18.5 km/h 27.7 km/h 93% 0 mm 14.00 W/m2
19:42 9 °C 8.1 °C 1019.9 hPa NE 13 km/h 14.8 km/h 94% 0 mm 11.00 W/m2
19:47 8.9 °C 7.9 °C 1019.9 hPa North 3.7 km/h 20.3 km/h 93% 0 mm 9.00 W/m2
19:52 8.9 °C 8.1 °C 1019.9 hPa NE 7.4 km/h 14.8 km/h 94% 0 mm 5.00 W/m2
19:54 8.9 °C 7.8 °C 1019.9 hPa NE 16.6 km/h 24 km/h 93% 0 mm 5.00 W/m2
19:59 8.9 °C 8 °C 1019.9 hPa NNE 16.6 km/h 27.7 km/h 94% 0 mm 0.00 W/m2
20:04 8.8 °C 7.9 °C 1019.9 hPa NE 14.8 km/h 18.5 km/h 94% 0 mm 0.00 W/m2
20:09 8.8 °C 7.9 °C 1019.9 hPa ENE 7.4 km/h 18.5 km/h 94% 0 mm 0.00 W/m2
20:14 8.9 °C 8 °C 1019.9 hPa North 7.4 km/h 14.8 km/h 94% 0 mm 0.00 W/m2
20:19 8.9 °C 8 °C 1019.9 hPa North 14.8 km/h 20.3 km/h 94% 0 mm 0.00 W/m2
20:24 8.9 °C 8 °C 1019.9 hPa NE 20.3 km/h 25.9 km/h 94% 0 mm 0.00 W/m2
20:29 8.9 °C 8.1 °C 1019.9 hPa ENE 9.3 km/h 24 km/h 94% 0 mm 0.00 W/m2
20:34 8.9 °C 8.1 °C 1019.9 hPa NE 5.5 km/h 20.3 km/h 94% 0 mm 0.00 W/m2
20:39 9 °C 8.1 °C 1019.9 hPa NE 18.5 km/h 20.3 km/h 94% 0 mm 0.00 W/m2
20:44 9.1 °C 8.2 °C 1020.2 hPa NE 5.5 km/h 29.6 km/h 94% 0 mm 0.00 W/m2
20:49 9.1 °C 8.2 °C 1020.2 hPa ENE 1.8 km/h 25.9 km/h 94% 0 mm 0.00 W/m2
20:54 9.1 °C 8.2 °C 1020.5 hPa NE 9.3 km/h 20.3 km/h 94% 0 mm 0.00 W/m2
20:59 9.2 °C 8.3 °C 1020.5 hPa NNE 13 km/h 25.9 km/h 94% 0 mm 0.00 W/m2
21:00 9.2 °C 8.3 °C 1020.5 hPa NE 16.6 km/h 25.9 km/h 94% 0 mm 0.00 W/m2
21:05 9.2 °C 8.3 °C 1020.5 hPa North 18.5 km/h 18.5 km/h 94% 0 mm 0.00 W/m2
21:10 9.2 °C 8.3 °C 1020.5 hPa NNE 5.5 km/h 18.5 km/h 94% 0 mm 0.00 W/m2
21:15 9.3 °C 8.3 °C 1020.5 hPa NE 11.1 km/h 20.3 km/h 94% 0 mm 0.00 W/m2
21:21 9.3 °C 8.4 °C 1020.9 hPa NE 9.3 km/h 24 km/h 94% 0 mm 0.00 W/m2
21:26 9.4 °C 8.4 °C 1020.5 hPa NE 14.8 km/h 22.2 km/h 94% 0 mm 0.00 W/m2
21:31 9.4 °C 8.4 °C 1020.2 hPa ENE 9.3 km/h 9.3 km/h 94% 0 mm 0.00 W/m2
21:36 9.4 °C 8.5 °C 1020.2 hPa NE 11.1 km/h 27.7 km/h 94% 0 mm 0.00 W/m2
21:41 9.4 °C 8.5 °C 1020.2 hPa NE 7.4 km/h 14.8 km/h 94% 0 mm 0.00 W/m2
21:46 9.5 °C 8.6 °C 1020.2 hPa ENE 5.5 km/h 11.1 km/h 94% 0 mm 0.00 W/m2
21:51 9.5 °C 8.6 °C 1020.2 hPa NE 7.4 km/h 7.4 km/h 94% 0 mm 0.00 W/m2
21:56 9.6 °C 8.6 °C 1020.2 hPa NE 3.7 km/h 11.1 km/h 94% 0 mm 0.00 W/m2
22:01 9.6 °C 8.8 °C 1020.2 hPa NE 16.6 km/h 16.6 km/h 95% 0 mm 0.00 W/m2
22:06 9.7 °C 8.9 °C 1020.5 hPa NE 7.4 km/h 7.4 km/h 95% 0 mm 0.00 W/m2
22:12 9.8 °C 9 °C 1020.5 hPa ENE 5.5 km/h 11.1 km/h 95% 0 mm 0.00 W/m2
22:13 9.8 °C 9 °C 1020.5 hPa ENE 5.5 km/h 14.8 km/h 95% 0 mm 0.00 W/m2
22:18 9.8 °C 9.1 °C 1020.5 hPa NNE 13 km/h 13 km/h 95% 0 mm 0.00 W/m2
22:23 9.8 °C 9.1 °C 1020.9 hPa NE 5.5 km/h 11.1 km/h 95% 0 mm 0.00 W/m2
22:28 9.9 °C 9.2 °C 1020.5 hPa NE 11.1 km/h 14.8 km/h 95% 0 mm 0.00 W/m2
22:33 10 °C 9.2 °C 1020.5 hPa NNE 3.7 km/h 14.8 km/h 95% 0 mm 0.00 W/m2
22:38 10.1 °C 9.3 °C 1020.5 hPa ENE 18.5 km/h 18.5 km/h 95% 0 mm 0.00 W/m2
22:39 10.1 °C 9.3 °C 1020.5 hPa ENE 13 km/h 18.5 km/h 95% 0 mm 0.00 W/m2
22:44 10.1 °C 9.3 °C 1020.2 hPa NE 11.1 km/h 16.6 km/h 95% 0 mm 0.00 W/m2
22:49 10.1 °C 9.2 °C 1020.5 hPa ENE 3.7 km/h 14.8 km/h 94% 0 mm 0.00 W/m2
22:54 10.2 °C 9.2 °C 1020.2 hPa NNE 7.4 km/h 14.8 km/h 94% 0 mm 0.00 W/m2
22:59 10.2 °C 9.3 °C 1020.2 hPa NE 16.6 km/h 16.6 km/h 94% 0 mm 0.00 W/m2
23:04 10.3 °C 9.3 °C 1020.2 hPa NE 11.1 km/h 16.6 km/h 94% 0 mm 0.00 W/m2
23:09 10.3 °C 9.4 °C 1020.5 hPa ENE 3.7 km/h 14.8 km/h 94% 0 mm 0.00 W/m2
23:14 10.3 °C 9.4 °C 1020.5 hPa Calm   18.5 km/h 94% 0 mm 0.00 W/m2
23:19 10.4 °C 9.4 °C 1020.9 hPa NE 7.4 km/h 18.5 km/h 94% 0 mm 0.00 W/m2
23:24 10.4 °C 9.4 °C 1020.9 hPa North 7.4 km/h 14.8 km/h 94% 0 mm 0.00 W/m2
23:25 10.4 °C 9.4 °C 1020.9 hPa ENE 1.8 km/h 14.8 km/h 94% 0 mm 0.00 W/m2
23:30 10.4 °C 9.5 °C 1020.9 hPa NE 3.7 km/h 18.5 km/h 94% 0 mm 0.00 W/m2
23:36 10.4 °C 9.5 °C 1020.5 hPa ENE 13 km/h 13 km/h 94% 0 mm 0.00 W/m2
23:41 10.4 °C 9.3 °C 1020.5 hPa ENE 7.4 km/h 20.3 km/h 93% 0 mm 0.00 W/m2
23:46 10.4 °C 9.3 °C 1020.5 hPa NNE 9.3 km/h 16.6 km/h 93% 0 mm 0.00 W/m2
23:51 10.4 °C 9.3 °C 1020.2 hPa ENE 9.3 km/h 16.6 km/h 93% 0 mm 0.00 W/m2
23:56 10.4 °C 9.3 °C 1020.2 hPa NE 7.4 km/h 16.6 km/h 93% 0 mm 0.00 W/m2
peotoneweather.com
Compliments of Weather Underground - 1.75 mb